sat.trackr.live / text

‹ back to catalog

STARLINK-34968

NORAD 65276 · 2025-184D

PAYLOAD ACTIVE UNKNOWN

§ Identity

Operator
Country
US
Launch date
2025-08-22
Launch site
AFWTR
Launch vehicle
Mass (kg)
RCS (m²)

Purposes: comms

External: N2YO · Heavens-Above · Gunter

§ Orbital elements

Epoch: 2026-09-20T14:27:03.422016Z

Period
93.91 min
Inclination
97.2840°
Eccentricity
0.0001628
Mean motion
15.33450240 rev/d
Perigee alt
464.4 km
Apogee alt
466.6 km
Semi-major
6,843.7 km
B*
6.1835e-4
RAAN
311.6215°
Arg perigee
72.2107°
Mean anomaly
287.9313°
Rev number
6,074

§ Raw data

STARLINK-349681 65276U 25184D   26263.60212294  .00019944  00000+0  61835-3 0  99932 65276  97.2840 311.6215 0001628  72.2107 287.9313 15.33450240 60740

JSON: /api/v1/satellites/65276 · /tle

For live sub-satellite position, see the globe view (requires WebGL).

§ Visibility from observer

Set your observer location to see the next 7 days of passes ≥ 10°. The values pass through the URL so the page stays shareable.

No JS? Fill the form by hand. The geolocation button needs JavaScript.